owner,sensor,date,latitude,longitude,vertical_datum,sea_water_temperature,qcFlag 
DISL,ioos:station:DISL:DISL:1,2009-02-01T00:00:00Z,30.2513,-88.0778,-1.72,13.37,2 
DISL,ioos:station:DISL:DISL:1,2009-02-01T00:30:00Z,30.2513,-88.0778,-1.72,13.34,2 
DISL,ioos:station:DISL:DISL:1,2009-02-01T01:00:00Z,30.2513,-88.0778,-1.72,13.48,2 
DISL,ioos:station:DISL:DISL:1,2009-02-01T01:30:00Z,30.2513,-88.0778,-1.72,12.95,2 
DISL,ioos:station:DISL:DISL:1,2009-02-01T02:00:00Z,30.2513,-88.0778,-1.72,12.97,2 
DISL,ioos:station:DISL:DISL:1,2009-02-01T02:30:00Z,30.2513,-88.0778,-1.72,12.72,2 
DISL,ioos:station:DISL:DISL:1,2009-02-01T03:00:00Z,30.2513,-88.0778,-1.72,12.59,2 
DISL,ioos:station:DISL:DISL:1,2009-02-01T03:30:00Z,30.2513,-88.0778,-1.72,12.53,2 
DISL,ioos:station:DISL:DISL:1,2009-02-01T04:00:00Z,30.2513,-88.0778,-1.72,12.52,2 
DISL,ioos:station:DISL:DISL:1,2009-02-01T04:30:00Z,30.2513,-88.0778,-1.72,12.53,2 
DISL,ioos:station:DISL:DISL:1,2009-02-01T05:00:00Z,30.2513,-88.0778,-1.72,12.54,2 
DISL,ioos:station:DISL:DISL:1,2009-02-01T05:30:00Z,30.2513,-88.0778,-1.72,12.54,2 
DISL,ioos:station:DISL:DISL:1,2009-02-01T06:00:00Z,30.2513,-88.0778,-1.72,12.55,2 
DISL,ioos:station:DISL:DISL:1,2009-02-01T06:30:00Z,30.2513,-88.0778,-1.72,12.55,2 
DISL,ioos:station:DISL:DISL:1,2009-02-01T07:00:00Z,30.2513,-88.0778,-1.72,12.55,2 
DISL,ioos:station:DISL:DISL:1,2009-02-01T07:30:00Z,30.2513,-88.0778,-1.72,12.57,2 
DISL,ioos:station:DISL:DISL:1,2009-02-01T08:00:00Z,30.2513,-88.0778,-1.72,12.54,2 
DISL,ioos:station:DISL:DISL:1,2009-02-01T08:30:00Z,30.2513,-88.0778,-1.72,12.53,2 
DISL,ioos:station:DISL:DISL:1,2009-02-01T09:00:00Z,30.2513,-88.0778,-1.72,12.51,2 
DISL,ioos:station:DISL:DISL:1,2009-02-01T09:30:00Z,30.2513,-88.0778,-1.72,12.57,2 
DISL,ioos:station:DISL:DISL:1,2009-02-01T10:00:00Z,30.2513,-88.0778,-1.72,12.55,2 
DISL,ioos:station:DISL:DISL:1,2009-02-01T10:30:00Z,30.2513,-88.0778,-1.72,12.48,2 
DISL,ioos:station:DISL:DISL:1,2009-02-01T11:00:00Z,30.2513,-88.0778,-1.72,12.5,2 
DISL,ioos:station:DISL:DISL:1,2009-02-01T11:30:00Z,30.2513,-88.0778,-1.72,12.51,2 
DISL,ioos:station:DISL:DISL:1,2009-02-01T12:00:00Z,30.2513,-88.0778,-1.72,12.58,2 
DISL,ioos:station:DISL:DISL:1,2009-02-01T12:30:00Z,30.2513,-88.0778,-1.72,12.62,2 
DISL,ioos:station:DISL:DISL:1,2009-02-01T13:00:00Z,30.2513,-88.0778,-1.72,12.73,2 
DISL,ioos:station:DISL:DISL:1,2009-02-01T13:30:00Z,30.2513,-88.0778,-1.72,12.71,2 
DISL,ioos:station:DISL:DISL:1,2009-02-01T14:00:00Z,30.2513,-88.0778,-1.72,12.7,2 
DISL,ioos:station:DISL:DISL:1,2009-02-01T14:30:00Z,30.2513,-88.0778,-1.72,12.7,2 
DISL,ioos:station:DISL:DISL:1,2009-02-01T15:00:00Z,30.2513,-88.0778,-1.72,12.68,2 
DISL,ioos:station:DISL:DISL:1,2009-02-01T15:30:00Z,30.2513,-88.0778,-1.72,13.68,2 
DISL,ioos:station:DISL:DISL:1,2009-02-01T16:00:00Z,30.2513,-88.0778,-1.72,13.99,2 
DISL,ioos:station:DISL:DISL:1,2009-02-01T16:30:00Z,30.2513,-88.0778,-1.72,14.4,2 
DISL,ioos:station:DISL:DISL:1,2009-02-01T17:00:00Z,30.2513,-88.0778,-1.72,14.38,2 
DISL,ioos:station:DISL:DISL:1,2009-02-01T17:30:00Z,30.2513,-88.0778,-1.72,14.68,2 
DISL,ioos:station:DISL:DISL:1,2009-02-01T18:00:00Z,30.2513,-88.0778,-1.72,14.91,2 
DISL,ioos:station:DISL:DISL:1,2009-02-01T18:30:00Z,30.2513,-88.0778,-1.72,14.97,2 
DISL,ioos:station:DISL:DISL:1,2009-02-01T19:00:00Z,30.2513,-88.0778,-1.72,15.04,2 
DISL,ioos:station:DISL:DISL:1,2009-02-01T19:30:00Z,30.2513,-88.0778,-1.72,15.03,2 
DISL,ioos:station:DISL:DISL:1,2009-02-01T20:00:00Z,30.2513,-88.0778,-1.72,15.08,2 
DISL,ioos:station:DISL:DISL:1,2009-02-01T20:30:00Z,30.2513,-88.0778,-1.72,15.29,2 
DISL,ioos:station:DISL:DISL:1,2009-02-01T21:00:00Z,30.2513,-88.0778,-1.72,15.41,2 
DISL,ioos:station:DISL:DISL:1,2009-02-01T21:30:00Z,30.2513,-88.0778,-1.72,15.45,2 
DISL,ioos:station:DISL:DISL:1,2009-02-01T22:00:00Z,30.2513,-88.0778,-1.72,15.25,2 
DISL,ioos:station:DISL:DISL:1,2009-02-01T22:30:00Z,30.2513,-88.0778,-1.72,15.07,2 
DISL,ioos:station:DISL:DISL:1,2009-02-01T23:00:00Z,30.2513,-88.0778,-1.72,14.85,2 
DISL,ioos:station:DISL:DISL:1,2009-02-01T23:30:00Z,30.2513,-88.0778,-1.72,14.7,2 
DISL,ioos:station:DISL:DISL:1,2009-02-02T00:00:00Z,30.2513,-88.0778,-1.72,14.49,2 
DISL,ioos:station:DISL:DISL:1,2009-02-02T00:30:00Z,30.2513,-88.0778,-1.72,14.05,2 
DISL,ioos:station:DISL:DISL:1,2009-02-02T01:00:00Z,30.2513,-88.0778,-1.72,13.69,2 
DISL,ioos:station:DISL:DISL:1,2009-02-02T01:30:00Z,30.2513,-88.0778,-1.72,13.47,2 
DISL,ioos:station:DISL:DISL:1,2009-02-02T02:00:00Z,30.2513,-88.0778,-1.72,13.43,2 
DISL,ioos:station:DISL:DISL:1,2009-02-02T02:30:00Z,30.2513,-88.0778,-1.72,13.33,2 
DISL,ioos:station:DISL:DISL:1,2009-02-02T03:00:00Z,30.2513,-88.0778,-1.72,13.32,2 
DISL,ioos:station:DISL:DISL:1,2009-02-02T03:30:00Z,30.2513,-88.0778,-1.72,13.38,2 
DISL,ioos:station:DISL:DISL:1,2009-02-02T04:00:00Z,30.2513,-88.0778,-1.72,13.38,2 
DISL,ioos:station:DISL:DISL:1,2009-02-02T04:30:00Z,30.2513,-88.0778,-1.72,13.36,2 
DISL,ioos:station:DISL:DISL:1,2009-02-02T05:00:00Z,30.2513,-88.0778,-1.72,13.39,2 
DISL,ioos:station:DISL:DISL:1,2009-02-02T05:30:00Z,30.2513,-88.0778,-1.72,13.4,2 
DISL,ioos:station:DISL:DISL:1,2009-02-02T06:00:00Z,30.2513,-88.0778,-1.72,13.39,2 
DISL,ioos:station:DISL:DISL:1,2009-02-02T06:30:00Z,30.2513,-88.0778,-1.72,13.39,2 
DISL,ioos:station:DISL:DISL:1,2009-02-02T07:00:00Z,30.2513,-88.0778,-1.72,13.41,2 
DISL,ioos:station:DISL:DISL:1,2009-02-02T07:30:00Z,30.2513,-88.0778,-1.72,13.47,2 
DISL,ioos:station:DISL:DISL:1,2009-02-02T08:00:00Z,30.2513,-88.0778,-1.72,13.97,2 
DISL,ioos:station:DISL:DISL:1,2009-02-02T08:30:00Z,30.2513,-88.0778,-1.72,14.13,2 
DISL,ioos:station:DISL:DISL:1,2009-02-02T09:00:00Z,30.2513,-88.0778,-1.72,14.11,2 
DISL,ioos:station:DISL:DISL:1,2009-02-02T09:30:00Z,30.2513,-88.0778,-1.72,14.06,2 
DISL,ioos:station:DISL:DISL:1,2009-02-02T10:00:00Z,30.2513,-88.0778,-1.72,14.19,2 
DISL,ioos:station:DISL:DISL:1,2009-02-02T10:30:00Z,30.2513,-88.0778,-1.72,14.16,2 
DISL,ioos:station:DISL:DISL:1,2009-02-02T11:00:00Z,30.2513,-88.0778,-1.72,14.08,2 
DISL,ioos:station:DISL:DISL:1,2009-02-02T11:30:00Z,30.2513,-88.0778,-1.72,14.06,2 
DISL,ioos:station:DISL:DISL:1,2009-02-02T12:00:00Z,30.2513,-88.0778,-1.72,14.06,2 
DISL,ioos:station:DISL:DISL:1,2009-02-02T12:30:00Z,30.2513,-88.0778,-1.72,13.98,2 
DISL,ioos:station:DISL:DISL:1,2009-02-02T13:00:00Z,30.2513,-88.0778,-1.72,13.93,2 
DISL,ioos:station:DISL:DISL:1,2009-02-02T13:30:00Z,30.2513,-88.0778,-1.72,14.04,2 
DISL,ioos:station:DISL:DISL:1,2009-02-02T14:00:00Z,30.2513,-88.0778,-1.72,14.77,2 
DISL,ioos:station:DISL:DISL:1,2009-02-02T14:30:00Z,30.2513,-88.0778,-1.72,15.26,2 
DISL,ioos:station:DISL:DISL:1,2009-02-02T15:00:00Z,30.2513,-88.0778,-1.72,15.28,2 
DISL,ioos:station:DISL:DISL:1,2009-02-02T15:30:00Z,30.2513,-88.0778,-1.72,15.24,2 
DISL,ioos:station:DISL:DISL:1,2009-02-02T16:00:00Z,30.2513,-88.0778,-1.72,15.42,2 
DISL,ioos:station:DISL:DISL:1,2009-02-02T16:30:00Z,30.2513,-88.0778,-1.72,15.41,2 
DISL,ioos:station:DISL:DISL:1,2009-02-02T17:00:00Z,30.2513,-88.0778,-1.72,15.53,2 
DISL,ioos:station:DISL:DISL:1,2009-02-02T17:30:00Z,30.2513,-88.0778,-1.72,15.2,2 
DISL,ioos:station:DISL:DISL:1,2009-02-02T18:00:00Z,30.2513,-88.0778,-1.72,14.23,2 
DISL,ioos:station:DISL:DISL:1,2009-02-02T18:30:00Z,30.2513,-88.0778,-1.72,14.24,2 
DISL,ioos:station:DISL:DISL:1,2009-02-02T19:00:00Z,30.2513,-88.0778,-1.72,14.67,2 
DISL,ioos:station:DISL:DISL:1,2009-02-02T19:30:00Z,30.2513,-88.0778,-1.72,14.98,2 
DISL,ioos:station:DISL:DISL:1,2009-02-02T20:00:00Z,30.2513,-88.0778,-1.72,14.47,2 
DISL,ioos:station:DISL:DISL:1,2009-02-02T20:30:00Z,30.2513,-88.0778,-1.72,14.38,2 
DISL,ioos:station:DISL:DISL:1,2009-02-02T21:00:00Z,30.2513,-88.0778,-1.72,14.36,2 
DISL,ioos:station:DISL:DISL:1,2009-02-02T21:30:00Z,30.2513,-88.0778,-1.72,14.31,2 
DISL,ioos:station:DISL:DISL:1,2009-02-02T22:00:00Z,30.2513,-88.0778,-1.72,14.17,2 
DISL,ioos:station:DISL:DISL:1,2009-02-02T22:30:00Z,30.2513,-88.0778,-1.72,14.01,2 
DISL,ioos:station:DISL:DISL:1,2009-02-02T23:00:00Z,30.2513,-88.0778,-1.72,13.99,2 
DISL,ioos:station:DISL:DISL:1,2009-02-02T23:30:00Z,30.2513,-88.0778,-1.72,13.81,2 
DISL,ioos:station:DISL:DISL:1,2009-02-03T00:00:00Z,30.2513,-88.0778,-1.72,13.71,2 
DISL,ioos:station:DISL:DISL:1,2009-02-03T00:30:00Z,30.2513,-88.0778,-1.72,13.49,2 
DISL,ioos:station:DISL:DISL:1,2009-02-03T01:00:00Z,30.2513,-88.0778,-1.72,13.4,2 
DISL,ioos:station:DISL:DISL:1,2009-02-03T01:30:00Z,30.2513,-88.0778,-1.72,13.31,2 
DISL,ioos:station:DISL:DISL:1,2009-02-03T02:00:00Z,30.2513,-88.0778,-1.72,13.22,2 
DISL,ioos:station:DISL:DISL:1,2009-02-03T02:30:00Z,30.2513,-88.0778,-1.72,13.11,2 
DISL,ioos:station:DISL:DISL:1,2009-02-03T03:00:00Z,30.2513,-88.0778,-1.72,12.99,2 
DISL,ioos:station:DISL:DISL:1,2009-02-03T03:30:00Z,30.2513,-88.0778,-1.72,12.81,2 
DISL,ioos:station:DISL:DISL:1,2009-02-03T04:00:00Z,30.2513,-88.0778,-1.72,12.65,2 
DISL,ioos:station:DISL:DISL:1,2009-02-03T04:30:00Z,30.2513,-88.0778,-1.72,12.64,2 
DISL,ioos:station:DISL:DISL:1,2009-02-03T05:00:00Z,30.2513,-88.0778,-1.72,12.43,2 
DISL,ioos:station:DISL:DISL:1,2009-02-03T05:30:00Z,30.2513,-88.0778,-1.72,12.23,2 
DISL,ioos:station:DISL:DISL:1,2009-02-03T06:00:00Z,30.2513,-88.0778,-1.72,12.13,2 
DISL,ioos:station:DISL:DISL:1,2009-02-03T06:30:00Z,30.2513,-88.0778,-1.72,11.69,2 
DISL,ioos:station:DISL:DISL:1,2009-02-03T07:00:00Z,30.2513,-88.0778,-1.72,11.79,2 
DISL,ioos:station:DISL:DISL:1,2009-02-03T07:30:00Z,30.2513,-88.0778,-1.72,11.83,2 
DISL,ioos:station:DISL:DISL:1,2009-02-03T08:00:00Z,30.2513,-88.0778,-1.72,11.84,2 
DISL,ioos:station:DISL:DISL:1,2009-02-03T08:30:00Z,30.2513,-88.0778,-1.72,12.35,2 
DISL,ioos:station:DISL:DISL:1,2009-02-03T09:00:00Z,30.2513,-88.0778,-1.72,11.74,2 
DISL,ioos:station:DISL:DISL:1,2009-02-03T09:30:00Z,30.2513,-88.0778,-1.72,12.06,2 
DISL,ioos:station:DISL:DISL:1,2009-02-03T10:00:00Z,30.2513,-88.0778,-1.72,12.67,2 
DISL,ioos:station:DISL:DISL:1,2009-02-03T10:30:00Z,30.2513,-88.0778,-1.72,12.19,2 
DISL,ioos:station:DISL:DISL:1,2009-02-03T11:00:00Z,30.2513,-88.0778,-1.72,10.57,2 
DISL,ioos:station:DISL:DISL:1,2009-02-03T11:30:00Z,30.2513,-88.0778,-1.72,10.84,2 
DISL,ioos:station:DISL:DISL:1,2009-02-03T12:00:00Z,30.2513,-88.0778,-1.72,12.89,2 
DISL,ioos:station:DISL:DISL:1,2009-02-03T12:30:00Z,30.2513,-88.0778,-1.72,13.3,2 
DISL,ioos:station:DISL:DISL:1,2009-02-03T13:00:00Z,30.2513,-88.0778,-1.72,14.01,2 
DISL,ioos:station:DISL:DISL:1,2009-02-03T13:30:00Z,30.2513,-88.0778,-1.72,13.25,2 
DISL,ioos:station:DISL:DISL:1,2009-02-03T14:00:00Z,30.2513,-88.0778,-1.72,11.66,2 
DISL,ioos:station:DISL:DISL:1,2009-02-03T14:30:00Z,30.2513,-88.0778,-1.72,11.75,2 
DISL,ioos:station:DISL:DISL:1,2009-02-03T15:00:00Z,30.2513,-88.0778,-1.72,11.17,2 
DISL,ioos:station:DISL:DISL:1,2009-02-03T15:30:00Z,30.2513,-88.0778,-1.72,10.89,2 
DISL,ioos:station:DISL:DISL:1,2009-02-03T16:00:00Z,30.2513,-88.0778,-1.72,11.87,2 
DISL,ioos:station:DISL:DISL:1,2009-02-03T16:30:00Z,30.2513,-88.0778,-1.72,11.31,2 
DISL,ioos:station:DISL:DISL:1,2009-02-03T17:00:00Z,30.2513,-88.0778,-1.72,12.61,2 
DISL,ioos:station:DISL:DISL:1,2009-02-03T17:30:00Z,30.2513,-88.0778,-1.72,14.22,2 
DISL,ioos:station:DISL:DISL:1,2009-02-03T18:00:00Z,30.2513,-88.0778,-1.72,13.91,2 
DISL,ioos:station:DISL:DISL:1,2009-02-03T18:30:00Z,30.2513,-88.0778,-1.72,13.91,2 
DISL,ioos:station:DISL:DISL:1,2009-02-03T19:00:00Z,30.2513,-88.0778,-1.72,14.36,2 
DISL,ioos:station:DISL:DISL:1,2009-02-03T19:30:00Z,30.2513,-88.0778,-1.72,13.64,2 
DISL,ioos:station:DISL:DISL:1,2009-02-03T20:00:00Z,30.2513,-88.0778,-1.72,14.0,2 
DISL,ioos:station:DISL:DISL:1,2009-02-03T20:30:00Z,30.2513,-88.0778,-1.72,14.78,2 
DISL,ioos:station:DISL:DISL:1,2009-02-03T21:00:00Z,30.2513,-88.0778,-1.72,13.61,2 
DISL,ioos:station:DISL:DISL:1,2009-02-03T21:30:00Z,30.2513,-88.0778,-1.72,12.83,2 
DISL,ioos:station:DISL:DISL:1,2009-02-03T22:00:00Z,30.2513,-88.0778,-1.72,12.53,2 
DISL,ioos:station:DISL:DISL:1,2009-02-03T22:30:00Z,30.2513,-88.0778,-1.72,12.47,2 
DISL,ioos:station:DISL:DISL:1,2009-02-03T23:00:00Z,30.2513,-88.0778,-1.72,12.33,2 
DISL,ioos:station:DISL:DISL:1,2009-02-03T23:30:00Z,30.2513,-88.0778,-1.72,12.31,2 
DISL,ioos:station:DISL:DISL:1,2009-02-04T00:00:00Z,30.2513,-88.0778,-1.72,12.3,2 
DISL,ioos:station:DISL:DISL:1,2009-02-04T00:30:00Z,30.2513,-88.0778,-1.72,12.31,2 
DISL,ioos:station:DISL:DISL:1,2009-02-04T01:00:00Z,30.2513,-88.0778,-1.72,12.3,2 
DISL,ioos:station:DISL:DISL:1,2009-02-04T01:30:00Z,30.2513,-88.0778,-1.72,12.26,2 
DISL,ioos:station:DISL:DISL:1,2009-02-04T02:00:00Z,30.2513,-88.0778,-1.72,12.19,2 
DISL,ioos:station:DISL:DISL:1,2009-02-04T02:30:00Z,30.2513,-88.0778,-1.72,12.13,2 
DISL,ioos:station:DISL:DISL:1,2009-02-04T03:00:00Z,30.2513,-88.0778,-1.72,12.08,2 
DISL,ioos:station:DISL:DISL:1,2009-02-04T03:30:00Z,30.2513,-88.0778,-1.72,12.13,2 
DISL,ioos:station:DISL:DISL:1,2009-02-04T04:00:00Z,30.2513,-88.0778,-1.72,12.11,2 
DISL,ioos:station:DISL:DISL:1,2009-02-04T04:30:00Z,30.2513,-88.0778,-1.72,12.08,2 
DISL,ioos:station:DISL:DISL:1,2009-02-04T05:00:00Z,30.2513,-88.0778,-1.72,12.13,2 
DISL,ioos:station:DISL:DISL:1,2009-02-04T05:30:00Z,30.2513,-88.0778,-1.72,12.0,2 
DISL,ioos:station:DISL:DISL:1,2009-02-04T06:00:00Z,30.2513,-88.0778,-1.72,11.99,2 
DISL,ioos:station:DISL:DISL:1,2009-02-04T06:30:00Z,30.2513,-88.0778,-1.72,11.81,2 
DISL,ioos:station:DISL:DISL:1,2009-02-04T07:00:00Z,30.2513,-88.0778,-1.72,11.85,2 
DISL,ioos:station:DISL:DISL:1,2009-02-04T07:30:00Z,30.2513,-88.0778,-1.72,11.61,2 
DISL,ioos:station:DISL:DISL:1,2009-02-04T08:00:00Z,30.2513,-88.0778,-1.72,11.54,2 
DISL,ioos:station:DISL:DISL:1,2009-02-04T08:30:00Z,30.2513,-88.0778,-1.72,11.3,2 
DISL,ioos:station:DISL:DISL:1,2009-02-04T09:00:00Z,30.2513,-88.0778,-1.72,11.02,2 
DISL,ioos:station:DISL:DISL:1,2009-02-04T09:30:00Z,30.2513,-88.0778,-1.72,10.86,2 
DISL,ioos:station:DISL:DISL:1,2009-02-04T10:00:00Z,30.2513,-88.0778,-1.72,10.91,2 
DISL,ioos:station:DISL:DISL:1,2009-02-04T10:30:00Z,30.2513,-88.0778,-1.72,10.64,2 
DISL,ioos:station:DISL:DISL:1,2009-02-04T11:00:00Z,30.2513,-88.0778,-1.72,10.53,2 
DISL,ioos:station:DISL:DISL:1,2009-02-04T11:30:00Z,30.2513,-88.0778,-1.72,10.26,2 
DISL,ioos:station:DISL:DISL:1,2009-02-04T12:00:00Z,30.2513,-88.0778,-1.72,10.06,2 
DISL,ioos:station:DISL:DISL:1,2009-02-04T12:30:00Z,30.2513,-88.0778,-1.72,10.0,2 
DISL,ioos:station:DISL:DISL:1,2009-02-04T13:00:00Z,30.2513,-88.0778,-1.72,9.95,2 
DISL,ioos:station:DISL:DISL:1,2009-02-04T13:30:00Z,30.2513,-88.0778,-1.72,9.94,2 
DISL,ioos:station:DISL:DISL:1,2009-02-04T14:00:00Z,30.2513,-88.0778,-1.72,9.92,2 
DISL,ioos:station:DISL:DISL:1,2009-02-04T14:30:00Z,30.2513,-88.0778,-1.72,10.1,2 
DISL,ioos:station:DISL:DISL:1,2009-02-04T15:00:00Z,30.2513,-88.0778,-1.72,10.45,2 
DISL,ioos:station:DISL:DISL:1,2009-02-04T15:30:00Z,30.2513,-88.0778,-1.72,10.62,2 
DISL,ioos:station:DISL:DISL:1,2009-02-04T16:00:00Z,30.2513,-88.0778,-1.72,10.52,2 
DISL,ioos:station:DISL:DISL:1,2009-02-04T16:30:00Z,30.2513,-88.0778,-1.72,11.45,2 
DISL,ioos:station:DISL:DISL:1,2009-02-04T17:00:00Z,30.2513,-88.0778,-1.72,9.89,2 
DISL,ioos:station:DISL:DISL:1,2009-02-04T17:30:00Z,30.2513,-88.0778,-1.72,9.37,2 
DISL,ioos:station:DISL:DISL:1,2009-02-04T18:00:00Z,30.2513,-88.0778,-1.72,9.19,2 
DISL,ioos:station:DISL:DISL:1,2009-02-04T18:30:00Z,30.2513,-88.0778,-1.72,8.09,2 
DISL,ioos:station:DISL:DISL:1,2009-02-04T19:00:00Z,30.2513,-88.0778,-1.72,8.84,2 
DISL,ioos:station:DISL:DISL:1,2009-02-04T19:30:00Z,30.2513,-88.0778,-1.72,9.4,2 
DISL,ioos:station:DISL:DISL:1,2009-02-04T20:00:00Z,30.2513,-88.0778,-1.72,9.14,2 
DISL,ioos:station:DISL:DISL:1,2009-02-04T20:30:00Z,30.2513,-88.0778,-1.72,9.73,2 
DISL,ioos:station:DISL:DISL:1,2009-02-04T21:00:00Z,30.2513,-88.0778,-1.72,10.24,2 
DISL,ioos:station:DISL:DISL:1,2009-02-04T21:30:00Z,30.2513,-88.0778,-1.72,11.02,2 
DISL,ioos:station:DISL:DISL:1,2009-02-04T22:00:00Z,30.2513,-88.0778,-1.72,10.83,2 
DISL,ioos:station:DISL:DISL:1,2009-02-04T22:30:00Z,30.2513,-88.0778,-1.72,10.93,2 
DISL,ioos:station:DISL:DISL:1,2009-02-04T23:00:00Z,30.2513,-88.0778,-1.72,11.52,2 
DISL,ioos:station:DISL:DISL:1,2009-02-04T23:30:00Z,30.2513,-88.0778,-1.72,11.61,2 
DISL,ioos:station:DISL:DISL:1,2009-02-05T00:00:00Z,30.2513,-88.0778,-1.72,10.08,2 
DISL,ioos:station:DISL:DISL:1,2009-02-05T00:30:00Z,30.2513,-88.0778,-1.72,9.77,2 
DISL,ioos:station:DISL:DISL:1,2009-02-05T01:00:00Z,30.2513,-88.0778,-1.72,9.61,2 
DISL,ioos:station:DISL:DISL:1,2009-02-05T01:30:00Z,30.2513,-88.0778,-1.72,9.53,2 
DISL,ioos:station:DISL:DISL:1,2009-02-05T02:00:00Z,30.2513,-88.0778,-1.72,9.46,2 
DISL,ioos:station:DISL:DISL:1,2009-02-05T02:30:00Z,30.2513,-88.0778,-1.72,9.41,2 
DISL,ioos:station:DISL:DISL:1,2009-02-05T03:00:00Z,30.2513,-88.0778,-1.72,9.33,2 
DISL,ioos:station:DISL:DISL:1,2009-02-05T03:30:00Z,30.2513,-88.0778,-1.72,9.53,2 
DISL,ioos:station:DISL:DISL:1,2009-02-05T04:00:00Z,30.2513,-88.0778,-1.72,9.61,2 
DISL,ioos:station:DISL:DISL:1,2009-02-05T04:30:00Z,30.2513,-88.0778,-1.72,10.14,2 
DISL,ioos:station:DISL:DISL:1,2009-02-05T05:00:00Z,30.2513,-88.0778,-1.72,10.34,2 
DISL,ioos:station:DISL:DISL:1,2009-02-05T05:30:00Z,30.2513,-88.0778,-1.72,10.31,2 
DISL,ioos:station:DISL:DISL:1,2009-02-05T06:00:00Z,30.2513,-88.0778,-1.72,10.34,2 
DISL,ioos:station:DISL:DISL:1,2009-02-05T06:30:00Z,30.2513,-88.0778,-1.72,10.41,2 
DISL,ioos:station:DISL:DISL:1,2009-02-05T07:00:00Z,30.2513,-88.0778,-1.72,10.43,2 
DISL,ioos:station:DISL:DISL:1,2009-02-05T07:30:00Z,30.2513,-88.0778,-1.72,10.4,2 
DISL,ioos:station:DISL:DISL:1,2009-02-05T08:00:00Z,30.2513,-88.0778,-1.72,10.41,2 
DISL,ioos:station:DISL:DISL:1,2009-02-05T08:30:00Z,30.2513,-88.0778,-1.72,10.36,2 
DISL,ioos:station:DISL:DISL:1,2009-02-05T09:00:00Z,30.2513,-88.0778,-1.72,10.25,2 
DISL,ioos:station:DISL:DISL:1,2009-02-05T09:30:00Z,30.2513,-88.0778,-1.72,10.1,2 
DISL,ioos:station:DISL:DISL:1,2009-02-05T10:00:00Z,30.2513,-88.0778,-1.72,9.94,2 
DISL,ioos:station:DISL:DISL:1,2009-02-05T10:30:00Z,30.2513,-88.0778,-1.72,9.96,2 
DISL,ioos:station:DISL:DISL:1,2009-02-05T11:00:00Z,30.2513,-88.0778,-1.72,9.78,2 
DISL,ioos:station:DISL:DISL:1,2009-02-05T11:30:00Z,30.2513,-88.0778,-1.72,9.57,2 
DISL,ioos:station:DISL:DISL:1,2009-02-05T12:00:00Z,30.2513,-88.0778,-1.72,9.75,2 
DISL,ioos:station:DISL:DISL:1,2009-02-05T12:30:00Z,30.2513,-88.0778,-1.72,9.69,2 
DISL,ioos:station:DISL:DISL:1,2009-02-05T13:00:00Z,30.2513,-88.0778,-1.72,9.94,2 
DISL,ioos:station:DISL:DISL:1,2009-02-05T13:30:00Z,30.2513,-88.0778,-1.72,9.89,2 
DISL,ioos:station:DISL:DISL:1,2009-02-05T14:00:00Z,30.2513,-88.0778,-1.72,9.9,2 
DISL,ioos:station:DISL:DISL:1,2009-02-05T14:30:00Z,30.2513,-88.0778,-1.72,9.81,2 
DISL,ioos:station:DISL:DISL:1,2009-02-05T15:00:00Z,30.2513,-88.0778,-1.72,11.09,2 
DISL,ioos:station:DISL:DISL:1,2009-02-05T15:30:00Z,30.2513,-88.0778,-1.72,11.22,2 
DISL,ioos:station:DISL:DISL:1,2009-02-05T16:00:00Z,30.2513,-88.0778,-1.72,10.94,2 
DISL,ioos:station:DISL:DISL:1,2009-02-05T16:30:00Z,30.2513,-88.0778,-1.72,10.8,2 
DISL,ioos:station:DISL:DISL:1,2009-02-05T17:00:00Z,30.2513,-88.0778,-1.72,10.7,2 
DISL,ioos:station:DISL:DISL:1,2009-02-05T17:30:00Z,30.2513,-88.0778,-1.72,10.65,2 
DISL,ioos:station:DISL:DISL:1,2009-02-05T18:00:00Z,30.2513,-88.0778,-1.72,10.61,2 
DISL,ioos:station:DISL:DISL:1,2009-02-05T18:30:00Z,30.2513,-88.0778,-1.72,10.54,2 
DISL,ioos:station:DISL:DISL:1,2009-02-05T19:00:00Z,30.2513,-88.0778,-1.72,10.39,2 
DISL,ioos:station:DISL:DISL:1,2009-02-05T19:30:00Z,30.2513,-88.0778,-1.72,10.64,2 
DISL,ioos:station:DISL:DISL:1,2009-02-05T20:00:00Z,30.2513,-88.0778,-1.72,10.74,2 
DISL,ioos:station:DISL:DISL:1,2009-02-05T20:30:00Z,30.2513,-88.0778,-1.72,10.84,2 
DISL,ioos:station:DISL:DISL:1,2009-02-05T21:00:00Z,30.2513,-88.0778,-1.72,10.45,2 
DISL,ioos:station:DISL:DISL:1,2009-02-05T21:30:00Z,30.2513,-88.0778,-1.72,10.03,2 
DISL,ioos:station:DISL:DISL:1,2009-02-05T22:00:00Z,30.2513,-88.0778,-1.72,9.82,2 
DISL,ioos:station:DISL:DISL:1,2009-02-05T22:30:00Z,30.2513,-88.0778,-1.72,9.57,2 
DISL,ioos:station:DISL:DISL:1,2009-02-05T23:00:00Z,30.2513,-88.0778,-1.72,9.45,2 
DISL,ioos:station:DISL:DISL:1,2009-02-05T23:30:00Z,30.2513,-88.0778,-1.72,9.45,2 
DISL,ioos:station:DISL:DISL:1,2009-02-06T00:00:00Z,30.2513,-88.0778,-1.72,9.52,2 
DISL,ioos:station:DISL:DISL:1,2009-02-06T00:30:00Z,30.2513,-88.0778,-1.72,9.92,2 
DISL,ioos:station:DISL:DISL:1,2009-02-06T01:00:00Z,30.2513,-88.0778,-1.72,10.36,2 
DISL,ioos:station:DISL:DISL:1,2009-02-06T01:30:00Z,30.2513,-88.0778,-1.72,10.7,2 
DISL,ioos:station:DISL:DISL:1,2009-02-06T02:00:00Z,30.2513,-88.0778,-1.72,10.93,2 
DISL,ioos:station:DISL:DISL:1,2009-02-06T02:30:00Z,30.2513,-88.0778,-1.72,10.24,2 
DISL,ioos:station:DISL:DISL:1,2009-02-06T03:00:00Z,30.2513,-88.0778,-1.72,9.95,2 
DISL,ioos:station:DISL:DISL:1,2009-02-06T03:30:00Z,30.2513,-88.0778,-1.72,9.87,2 
DISL,ioos:station:DISL:DISL:1,2009-02-06T04:00:00Z,30.2513,-88.0778,-1.72,9.9,2 
DISL,ioos:station:DISL:DISL:1,2009-02-06T04:30:00Z,30.2513,-88.0778,-1.72,9.88,2 
DISL,ioos:station:DISL:DISL:1,2009-02-06T05:00:00Z,30.2513,-88.0778,-1.72,9.88,2 
DISL,ioos:station:DISL:DISL:1,2009-02-06T05:30:00Z,30.2513,-88.0778,-1.72,9.86,2 
DISL,ioos:station:DISL:DISL:1,2009-02-06T06:00:00Z,30.2513,-88.0778,-1.72,11.52,2 
DISL,ioos:station:DISL:DISL:1,2009-02-06T06:30:00Z,30.2513,-88.0778,-1.72,11.83,2 
DISL,ioos:station:DISL:DISL:1,2009-02-06T07:00:00Z,30.2513,-88.0778,-1.72,11.93,2 
DISL,ioos:station:DISL:DISL:1,2009-02-06T07:30:00Z,30.2513,-88.0778,-1.72,11.96,2 
DISL,ioos:station:DISL:DISL:1,2009-02-06T08:00:00Z,30.2513,-88.0778,-1.72,11.94,2 
DISL,ioos:station:DISL:DISL:1,2009-02-06T08:30:00Z,30.2513,-88.0778,-1.72,11.85,2 
DISL,ioos:station:DISL:DISL:1,2009-02-06T09:00:00Z,30.2513,-88.0778,-1.72,11.33,2 
DISL,ioos:station:DISL:DISL:1,2009-02-06T09:30:00Z,30.2513,-88.0778,-1.72,10.37,2 
DISL,ioos:station:DISL:DISL:1,2009-02-06T10:00:00Z,30.2513,-88.0778,-1.72,10.04,2 
DISL,ioos:station:DISL:DISL:1,2009-02-06T10:30:00Z,30.2513,-88.0778,-1.72,10.02,2 
DISL,ioos:station:DISL:DISL:1,2009-02-06T11:00:00Z,30.2513,-88.0778,-1.72,9.74,2 
DISL,ioos:station:DISL:DISL:1,2009-02-06T11:30:00Z,30.2513,-88.0778,-1.72,8.8,2 
DISL,ioos:station:DISL:DISL:1,2009-02-06T12:00:00Z,30.2513,-88.0778,-1.72,8.63,2 
DISL,ioos:station:DISL:DISL:1,2009-02-06T12:30:00Z,30.2513,-88.0778,-1.72,9.19,2 
DISL,ioos:station:DISL:DISL:1,2009-02-06T13:00:00Z,30.2513,-88.0778,-1.72,9.12,2 
DISL,ioos:station:DISL:DISL:1,2009-02-06T13:30:00Z,30.2513,-88.0778,-1.72,9.29,2 
DISL,ioos:station:DISL:DISL:1,2009-02-06T14:00:00Z,30.2513,-88.0778,-1.72,9.31,2 
DISL,ioos:station:DISL:DISL:1,2009-02-06T14:30:00Z,30.2513,-88.0778,-1.72,9.57,2 
DISL,ioos:station:DISL:DISL:1,2009-02-06T15:00:00Z,30.2513,-88.0778,-1.72,9.65,2 
DISL,ioos:station:DISL:DISL:1,2009-02-06T15:30:00Z,30.2513,-88.0778,-1.72,10.28,2 
DISL,ioos:station:DISL:DISL:1,2009-02-06T16:00:00Z,30.2513,-88.0778,-1.72,10.81,2 
DISL,ioos:station:DISL:DISL:1,2009-02-06T16:30:00Z,30.2513,-88.0778,-1.72,11.41,2 
DISL,ioos:station:DISL:DISL:1,2009-02-06T17:00:00Z,30.2513,-88.0778,-1.72,10.96,2 
DISL,ioos:station:DISL:DISL:1,2009-02-06T17:30:00Z,30.2513,-88.0778,-1.72,10.66,2 
DISL,ioos:station:DISL:DISL:1,2009-02-06T18:00:00Z,30.2513,-88.0778,-1.72,10.41,2 
DISL,ioos:station:DISL:DISL:1,2009-02-06T18:30:00Z,30.2513,-88.0778,-1.72,10.48,2 
DISL,ioos:station:DISL:DISL:1,2009-02-06T19:00:00Z,30.2513,-88.0778,-1.72,10.58,2 
DISL,ioos:station:DISL:DISL:1,2009-02-06T19:30:00Z,30.2513,-88.0778,-1.72,11.85,2 
DISL,ioos:station:DISL:DISL:1,2009-02-06T20:00:00Z,30.2513,-88.0778,-1.72,12.49,2 
DISL,ioos:station:DISL:DISL:1,2009-02-06T20:30:00Z,30.2513,-88.0778,-1.72,12.82,2 
DISL,ioos:station:DISL:DISL:1,2009-02-06T21:00:00Z,30.2513,-88.0778,-1.72,12.96,2 
DISL,ioos:station:DISL:DISL:1,2009-02-06T21:30:00Z,30.2513,-88.0778,-1.72,13.07,2 
DISL,ioos:station:DISL:DISL:1,2009-02-06T22:00:00Z,30.2513,-88.0778,-1.72,13.13,2 
DISL,ioos:station:DISL:DISL:1,2009-02-06T22:30:00Z,30.2513,-88.0778,-1.72,13.11,2 
DISL,ioos:station:DISL:DISL:1,2009-02-06T23:00:00Z,30.2513,-88.0778,-1.72,13.07,2 
DISL,ioos:station:DISL:DISL:1,2009-02-06T23:30:00Z,30.2513,-88.0778,-1.72,12.91,2 
DISL,ioos:station:DISL:DISL:1,2009-02-07T00:00:00Z,30.2513,-88.0778,-1.72,12.6,2 